www.pogodaiklimat.ru

Погода и климат >> Архив погоды >> Россия >> Псковская область >> Гдов


ПОГОДА в Гдове

  • Прогноз погоды в Гдове
  • Монитор погоды в Гдове

АРХИВ ПОГОДЫ в Гдове

Время (UTC), дата Ветер
(напр.,м/с)
 
Видим.   Явления Облачность Т
(С)
Тd
(С)
f
(%)
Тe
(С)
Тes
(С)
Комфортность P
(гПа)
Po
(гПа)
Тmin
(С)
Tmax
(С)
R
(мм)
R24
(мм)
S
(см)
09 12.02 СЗ 3 2000 м снег 10/10 200 м
[Frnb Ns]
+0.3 +0.3 100 -5 -5 999.6 994.6
12 12.02 СЗ 5 10 км в посл. час снег 10/10 300 м
[St]
-0.7 -1.2 96 -7 -7 1003.2 998.1
15 12.02 СЗ 3 20 км 8/4 600 м
[Cb calv Ac trans]
-2.9 -4.3 90 -8 -8 1007.3 1002.2 2
18 12.02 З 4 20 км ясно -4.9 -5.6 95 -11 -11 1010.4 1005.2 +0.3 2
21 12.02 З 3 20 км 9/9 600 м
[Sc]
-4.8 -5.3 96 -10 -10 1012.4 1007.2
00 13.02 СЗ 3 20 км 9/9 600 м
[Sc]
-2.3 -4.5 85 -7 -7 1013.6 1008.4
03 13.02 З 3 20 км 9/9 600 м
[Cb calv]
-3.7 -5.0 91 -9 -9 1013.7 1008.5 -5.9
06 13.02 Ю 3 20 км 10/10 200 м
[St]
-5.4 -5.6 98 -11 -11 1012.3 1007.1 -6.8 17
09 13.02 Ю 4 20 км 8/8 1000 м
[Sc Ac trans Ci fib]
-2.6 -4.4 87 -9 -8 1011.2 1006.0
12 13.02 Ю 4 20 км 8/8 200 м
[St Ac trans]
-0.9 -3.4 83 -7 -6 1010.5 1005.4
15 13.02 Ю 4 20 км 9/9 600 м
[Sc]
-0.6 -2.8 85 -6 -6 1011.0 1005.9
18 13.02 Ю 4 20 км 9/9 1000 м
[Sc]
-1.1 -2.9 88 -7 -7 1012.7 1007.6 -0.4
21 13.02 ЮЗ 3 20 км 10/10 600 м
[Cb calv]
-1.4 -2.0 96 -7 -7 1014.7 1009.5
00 14.02 ЮЗ 5 10 км 10/10 300 м
[St]
-0.6 -0.6 100 -7 -7 1014.6 1009.5
03 14.02 ЮЗ 4 20 км в посл. час ливневой снег 10/10 300 м
[St]
+0.1 +0.1 100 -6 -6 1015.2 1010.1 -1.4 0.3
06 14.02 З 4 20 км {ливн. осадки} 9/9 200 м
[St]
+0.5 +0.4 99 -5 -5 1017.6 1012.5 -1.4 0.3 18
09 14.02 СЗ 3 20 км 9/9 600 м
[Cb calv]
+1.2 +0.9 98 -3 -3 1020.8 1015.7
12 14.02 З 3 20 км 10/10 300 м
[St]
+1.1 +0.2 94 -4 -4 1022.3 1017.2
15 14.02 ЮЗ 4 20 км 10/3 600 м
[Sc Ac trans Ci fib]
+1.0 -0.3 91 -4 -4 1021.6 1016.5
18 14.02 Ю 6 20 км 9/4 600 м
[Sc Ac trans Ci fib]
+0.7 -0.8 90 -6 -6 1018.9 1013.8 +2.2
21 14.02 ЮЗ 5 10 км 10/10 100 м
[St]
+1.3 +1.3 100 -5 -5 1017.7 1012.6
00 15.02 ЮЗ 3 4000 м слаб. морось 10/10 100 м
[Cb cap]
+1.6 +1.6 100 -3 -3 1016.6 1011.5
03 15.02 З 4 10 км {морось} 10/10 100 м
[St]
+1.7 +1.8 100 -4 -4 1016.7 1011.6 +0.2 0.1
06 15.02 ЮЗ 3 10 км {морось} 9/8 200 м
[St Ac trans]
+1.4 +1.2 99 -3 -3 1017.4 1012.3 +0.7 0.1 18
09 15.02 З 4 20 км 10/1 1000 м
[Sc Ac trans Ci fib]
+2.5 +0.8 89 -2 -2 1017.8 1012.7
12 15.02 З 4 20 км 10/0
[Ci fib]
+3.6 +0.7 81 -1 0 1017.2 1012.1
15 15.02 ЮЗ 3 20 км 10/0
[Ci fib]
+2.3 +0.7 89 -2 -2 1016.9 1011.8
18 15.02 ЮЗ 2 20 км ясно +1.4 +0.7 95 -2 -2 1017.6 1012.5 +3.7
21 15.02 З 2 10 км 10/10 200 м
[St]
+1.2 +1.1 99 -2 -2 1018.6 1013.5
00 16.02 ЮЗ 1 500 м туман ?/? +0.7 +0.7 100 -2 -2 1018.1 1013.0
03 16.02 ЮЗ 3 500 м туман ?/? +0.9 +0.9 100 -4 -4 1016.1 1011.0 +0.5
06 16.02 ЮЗ 4 10 км в посл. час туман 9/9 300 м
[St]
+1.4 +1.4 100 -4 -4 1014.8 1009.7 +0.5 15
09 16.02 ЮЗ 6 20 км 3/0
[Ci fib]
+3.2 +0.6 83 -2 -2 1013.1 1008.0
12 16.02 ЮЗ 7
{11}
20 км 4/0
[Ci fib]
+4.4 -0.3 71 -1 -1 1010.2 1005.2
15 16.02 ЮЗ 4 20 км 3/0
[Ci fib]
+3.7 -1.1 71 -1 -1 1007.7 1002.7
18 16.02 ЮЗ 4 20 км 8/0
[Ci fib]
+3.0 -0.6 77 -2 -2 1005.8 1000.8 +4.7
21 16.02 З 4 20 км 8/0
[Ci fib]
+2.7 -0.1 82 -2 -2 1005.0 1000.0
00 17.02 З 4 20 км 3/0
[Ac trans]
+1.1 -0.1 92 -4 -4 1005.0 999.9
03 17.02 З 4 20 км ясно -0.3 -1.7 90 -6 -6 1006.1 1001.0 -0.4
06 17.02 З 4 20 км ясно -1.6 -3.8 85 -7 -7 1007.8 1002.7 -1.8 14
09 17.02 З 4 20 км ясно +0.8 -2.6 78 -4 -3 1010.4 1005.3
12 17.02 З 4 20 км ясно +2.1 -2.5 72 -3 -1 1013.0 1007.9
15 17.02 СЗ 5 20 км 1/0
[Ci fib]
+0.2 -3.5 76 -6 -6 1015.5 1010.4
18 17.02 СЗ 4 20 км ясно -1.2 -4.2 80 -7 -7 1018.2 1013.0 +2.3
21 17.02 С 2 20 км ясно -2.9 -5.1 85 -7 -7 1020.1 1014.9
00 18.02 ЮЗ 1 20 км ясно -9.4 -9.7 98 -12 -12 1022.3 1016.9
03 18.02 штиль 0 20 км 8/0
[Ac trans Ci fib]
-8.1 -8.3 98 -9 -9 1023.3 1018.0 -10.0
06 18.02 В 1 20 км 8/3 1000 м
[Sc Ac trans Ci fib]
-9.6 -10.1 96 -12 -12 1024.6 1019.2 -11.2 14
09 18.02 Ю 1 20 км 3/0
[Ac trans]
-2.2 -6.8 71 -4 -2 1024.6 1019.4
12 18.02 Ю 4 20 км 9/0
[Ac trans Ci fib]
-0.1 -8.5 53 -5 -4 1022.6 1017.4
15 18.02 Ю 4 20 км 10/0
[Ac trans Ci fib]
-0.5 -8.1 56 -5 -5 1019.9 1014.7
18 18.02 Ю 6 20 км 4/4 1000 м
[Sc]
-0.1 -7.7 57 -6 -6 1017.1 1012.0 +0.5
21 18.02 Ю 6 20 км 8/0
[Ac trans Ci fib]
-0.3 -5.1 70 -7 -7 1014.4 1009.3
00 19.02 Ю 6
{10}
20 км 9/9 300 м
[St]
-0.3 -2.0 88 -7 -7 1012.4 1007.3
03 19.02 ЮЗ 4 10 км 10/10 300 м
[St]
+1.3 +0.6 95 -4 -4 1010.5 1005.4 -0.9
06 19.02 Ю 5 4000 м дымка 10/10 200 м
[St]
+1.6 +1.3 98 -4 -4 1008.8 1003.7 -0.6 14

 

Местоположение метеостанции Гдов (Псковская область, Россия): широта 58.73 долгота 27.83 высота над уровнем моря 41 м.

В архиве по умолчанию представлена погода в Гдове за последнюю неделю. Архивные данные за месяц целиком и за предыдущие месяцы, начиная с января 2011 года, Вы можете получить, выбрав интересующий диапазон дат из раскрывающегося списка и нажав кнопку "Ввод!".


*Определитесь, кто Вы:
робот инопланетянин человек

Внимание! Время в таблицах - всемирное. Для получения местного времени необходимо прибавить поправку, которая равна 3 ч.

Смотрите также архив погоды в соседних городах и на ближайших метеорологических станциях:

Погода в Сланцах (Ленинградская область, Россия) (46 км)
Погода в Тиирикое (Эстония) (53 км)
Погода в Йохви (Эстония) (72 км)
Погода в Нарве (Эстония) (73 км)
Погода в Тарту (Эстония) (80 км)
Погода в Йыгеве (Эстония) (81 км)
Погода в Кингисеппе (Ленинградская область, Россия) (84 км)
Погода в Стругах-Красных (Псковская область, Россия) (90 км)
Погода в Вяйке-Маарье (Эстония) (102 км)
Погода в Пскове (Псковская область, Россия) (105 км)

Пояснения к столбцам:

Ветер - указаны скорость ветра в м/с - средняя за 10 мин, порывы в срок и между сроками (в фигурных скобках) и направление, откуда дует ветер: С - северный, СВ - северо-восточный, В - восточный, ЮВ - юго-восточный, Ю - южный, ЮЗ - юго-западный, З - западный, СЗ - северо-западный.
Видимость - горизонтальная дальность видимости в метрах или километрах. При видимости от 1 до 10 км при отсутствии осадков обычно наблюдается дымка, при ухудшении видимости до 1 км и менее - туман. В сухую погоду видимость может ухудшаться дымом, пылью или мглою.
Явления - указаны атмосферные явления, наблюдавшиеся в срок или в последний час перед сроком; фигурными скобками обозначены явления, наблюдавшиеся между сроками (за 1-3 часа до срока); квадратными скобками обозначены град или гололедные отложения с указанием их диаметра в мм.
Облачность - указаны через наклонную черту общая и нижняя облачность в баллах и высота нижней границы облаков в метрах; квадратными скобками обозначены формы облаков: Ci - перистые, Cs - перисто-слоистые, Cc - перисто-кучевые, Ac - высококучевые, As - высокослоистые, Sc - слоисто-кучевые, Ns - слоисто-дождевые, Cu - кучевые, Cb - кучево-дождевые. Подробнее классификацию облаков см. в Атласе облаков (PDF).
T - Температура воздуха - температура, измеренная на высоте 2 м над землей.
Td - Температура точки росы - температура, при понижении до которой содержащийся в воздухе водяной пар достигнет насыщения.
f - Относительная влажность воздуха - влажноcть воздуха, измеренная на высоте 2 м над землей.
Te - Эффективная температура - температура, которую ощущает одетый по сезону человек в тени. Характеристика душности погоды. При расчете учитывается влияние влажности воздуха и скорости ветра на теплоощущения человека.
Tes - Эффективная температура на солнце - температура, которую ощущает человек, с поправкой на солнечный нагрев. Характеристика знойности погоды. Зависит от высоты солнца над горизонтом, облачности и скорости ветра. Ночью, в пасмурную погоду, а также при ветре 12 м/с и более поправка равна нулю.
P - Атмосферное давление - приведенное к уровню моря атмосферное давление.
Po - Атмосферное давление - измеренное на уровне метеостанции атмосферное давление.
Tmin - Минимальная температура - минимум температуры воздуха на высоте 2 м над землей.
Tmax - Максимальная температура - максимум температуры воздуха на высоте 2 м над землей.
R - Количество осадков - Количество выпавших осадков за период времени, мм. При наведении курсора мыши на число - период времени, за который выпало указанное количество осадков.
R24 - Количество осадков - Количество выпавших осадков за 24 часа, мм.
S - Снежный покров - Высота снежного покрова, см. При наведении курсора мыши на число - состояние снежного покрова и степень покрытия местности в баллах.